Location: Chervonnoye
(48.6000°N, 34.4000°E)
Time: 13:41:35
(UTC+00:00)

deb Kosmos-2237 - Pass Details

Date: 23 June 2021
Orbit: 850 x 1045 km, 71.0° (Epoch: 25 July)

Event Time Altitude Azimuth Distance (km) Brightness Sun altitude
Rises 19:45:28 0° 248° (WSW) 3,609 ? -13.2°
Reaches altitude 10° 19:48:22 10° 261° (W) 2,700 ? -13.4°
Maximum altitude 19:53:39 27° 318° (NW) 1,800 ? -13.8°
Drops below altitude 10° 19:59:09 10° 15° (NNE) 2,816 ? -14.2°
Sets 20:02:15 0° 27° (NNE) 3,792 ? -14.4°
